Stündliche Wetter Jülich

Heute, 24 Februar, Mittwoch

Zeit Temperatur Niederschläge Wind Luftdruck Luftfeuchtigkeit
00:00 +12°C° 0 mm 3 m/S 764 mmHg 85%
01:00 +12°C° 0 mm 3 m/S 764 mmHg 86%
02:00 +11°C° 0 mm 3 m/S 764 mmHg 87%
03:00 +11°C° 0 mm 3 m/S 764 mmHg 88%
04:00 +11°C° 0 mm 3 m/S 764 mmHg 88%
05:00 +11°C° 0 mm 3 m/S 764 mmHg 88%
06:00 +11°C° 0 mm 3 m/S 764 mmHg 89%
07:00 +12°C° 0 mm 3 m/S 764 mmHg 85%
08:00 +13°C° 0 mm 4 m/S 764 mmHg 80%
09:00 +15°C° 0 mm 4 m/S 764 mmHg 76%
10:00 +17°C° 0 mm 4 m/S 763 mmHg 69%
11:00 +18°C° 0 mm 4 m/S 763 mmHg 62%
12:00 +19°C° 0 mm 4 m/S 763 mmHg 56%
13:00 +19°C° 0 mm 4 m/S 763 mmHg 57%
14:00 +19°C° 0 mm 4 m/S 762 mmHg 58%
15:00 +19°C° 0 mm 3 m/S 762 mmHg 59%
16:00 +18°C° 0 mm 3 m/S 762 mmHg 66%
17:00 +16°C° 0 mm 3 m/S 761 mmHg 74%
18:00 +14°C° 0 mm 3 m/S 761 mmHg 81%
19:00 +13°C° 0 mm 3 m/S 761 mmHg 80%
20:00 +13°C° 0 mm 3 m/S 761 mmHg 80%
21:00 +13°C° 0 mm 3 m/S 761 mmHg 80%
22:00 +12°C° 0 mm 3 m/S 761 mmHg 80%
23:00 +12°C° 0 mm 3 m/S 761 mmHg 80%

Morgen, 25 Februar, Donnerstag

Zeit Temperatur Niederschläge Wind Luftdruck Luftfeuchtigkeit
00:00 +12°C° 0 mm 3 m/S 761 mmHg 80%
01:00 +11°C° 0 mm 3 m/S 761 mmHg 80%
02:00 +11°C° 0 mm 3 m/S 761 mmHg 81%
03:00 +11°C° 0 mm 3 m/S 760 mmHg 81%
04:00 +11°C° 0 mm 3 m/S 761 mmHg 81%
05:00 +10°C° 0 mm 3 m/S 761 mmHg 82%
06:00 +10°C° 0 mm 3 m/S 761 mmHg 82%
07:00 +11°C° 0 mm 3 m/S 761 mmHg 78%
08:00 +12°C° 0 mm 4 m/S 761 mmHg 74%
09:00 +13°C° 0 mm 4 m/S 761 mmHg 70%
10:00 +14°C° 0 mm 4 m/S 761 mmHg 67%
11:00 +16°C° 0 mm 3 m/S 762 mmHg 63%
12:00 +17°C° 0 mm 3 m/S 762 mmHg 59%
13:00 +17°C° 0 mm 3 m/S 761 mmHg 59%
14:00 +17°C° 0 mm 2 m/S 761 mmHg 59%
15:00 +17°C° 0 mm 2 m/S 761 mmHg 59%
16:00 +16°C° 0 mm 2 m/S 761 mmHg 64%
17:00 +14°C° 0 mm 1 m/S 761 mmHg 69%
18:00 +13°C° 0 mm 1 m/S 761 mmHg 74%
19:00 +13°C° 0.2 mm 1 m/S 762 mmHg 78%
20:00 +12°C° 0.2 mm 2 m/S 762 mmHg 81%
21:00 +12°C° 0.2 mm 2 m/S 762 mmHg 85%
22:00 +12°C° 0.3 mm 2 m/S 762 mmHg 88%
23:00 +10°C° 0.3 mm 2 m/S 762 mmHg 91%

übermorgen, 26 Februar, Freitag

Zeit Temperatur Niederschläge Wind Luftdruck Luftfeuchtigkeit
00:00 +10°C° 0.3 mm 2 m/S 763 mmHg 94%
01:00 +9°C° 0.5 mm 2 m/S 763 mmHg 94%
02:00 +9°C° 0.5 mm 2 m/S 763 mmHg 94%
03:00 +9°C° 0.5 mm 3 m/S 763 mmHg 95%
04:00 +9°C° 0.9 mm 3 m/S 763 mmHg 94%
05:00 +8°C° 0.9 mm 4 m/S 763 mmHg 93%
06:00 +7°C° 0.9 mm 4 m/S 763 mmHg 92%
07:00 +7°C° 0.2 mm 4 m/S 764 mmHg 89%
08:00 +8°C° 0.2 mm 3 m/S 764 mmHg 86%
09:00 +8°C° 0.2 mm 3 m/S 764 mmHg 83%
10:00 +9°C° 0 mm 3 m/S 765 mmHg 77%
11:00 +9°C° 0 mm 3 m/S 765 mmHg 72%
12:00 +10°C° 0 mm 4 m/S 765 mmHg 66%
13:00 +10°C° 0 mm 4 m/S 765 mmHg 64%
14:00 +10°C° 0 mm 4 m/S 765 mmHg 62%
15:00 +10°C° 0 mm 4 m/S 765 mmHg 60%
16:00 +9°C° 0 mm 3 m/S 765 mmHg 65%
17:00 +8°C° 0 mm 3 m/S 766 mmHg 69%
18:00 +7°C° 0 mm 3 m/S 766 mmHg 74%
19:00 +5°C° 0 mm 3 m/S 767 mmHg 75%
20:00 +5°C° 0 mm 2 m/S 767 mmHg 76%
21:00 +5°C° 0 mm 2 m/S 767 mmHg 77%
22:00 +4°C° 0 mm 2 m/S 767 mmHg 79%
23:00 +4°C° 0 mm 2 m/S 768 mmHg 81%

27 Februar, Samstag

Zeit Temperatur Niederschläge Wind Luftdruck Luftfeuchtigkeit
00:00 +4°C° 0 mm 1 m/S 768 mmHg 82%
01:00 +4°C° 0 mm 1 m/S 768 mmHg 84%
02:00 +4°C° 0 mm 1 m/S 768 mmHg 85%
03:00 +3°C° 0 mm 1 m/S 768 mmHg 86%
04:00 +3°C° 0 mm 1 m/S 768 mmHg 87%
05:00 +3°C° 0 mm 1 m/S 768 mmHg 88%
06:00 +3°C° 0 mm 1 m/S 768 mmHg 89%
07:00 +4°C° 0 mm 1 m/S 768 mmHg 84%
08:00 +5°C° 0 mm 1 m/S 769 mmHg 80%
09:00 +6°C° 0 mm 1 m/S 769 mmHg 75%
10:00 +6°C° 0 mm 2 m/S 769 mmHg 70%
11:00 +7°C° 0 mm 2 m/S 769 mmHg 65%
12:00 +8°C° 0 mm 2 m/S 769 mmHg 59%
13:00 +9°C° 0 mm 3 m/S 768 mmHg 59%
14:00 +9°C° 0 mm 3 m/S 768 mmHg 59%
15:00 +9°C° 0 mm 3 m/S 767 mmHg 58%
16:00 +8°C° 0 mm 3 m/S 767 mmHg 63%
17:00 +7°C° 0 mm 2 m/S 767 mmHg 68%
18:00 +6°C° 0 mm 2 m/S 768 mmHg 73%
19:00 +5°C° 0 mm 2 m/S 768 mmHg 75%
20:00 +5°C° 0 mm 2 m/S 768 mmHg 76%
21:00 +5°C° 0 mm 2 m/S 768 mmHg 78%
22:00 +4°C° 0 mm 2 m/S 768 mmHg 80%
23:00 +5°C° 0 mm 1 m/S 768 mmHg 81%

28 Februar, Sonntag

Zeit Temperatur Niederschläge Wind Luftdruck Luftfeuchtigkeit
00:00 +5°C° 0 mm 1 m/S 768 mmHg 83%
01:00 +4°C° 0 mm 1 m/S 768 mmHg 85%
02:00 +4°C° 0 mm 1 m/S 767 mmHg 86%
03:00 +4°C° 0 mm 1 m/S 767 mmHg 87%
04:00 +4°C° 0 mm 1 m/S 767 mmHg 88%
05:00 +4°C° 0 mm 1 m/S 767 mmHg 90%
06:00 +3°C° 0 mm 1 m/S 767 mmHg 91%
07:00 +4°C° 0 mm 2 m/S 767 mmHg 86%
08:00 +5°C° 0 mm 2 m/S 767 mmHg 82%
09:00 +6°C° 0 mm 2 m/S 767 mmHg 78%
10:00 +7°C° 0 mm 3 m/S 767 mmHg 73%
11:00 +8°C° 0 mm 3 m/S 767 mmHg 67%
12:00 +10°C° 0 mm 3 m/S 766 mmHg 61%
13:00 +10°C° 0 mm 3 m/S 766 mmHg 60%
14:00 +10°C° 0 mm 4 m/S 766 mmHg 59%
15:00 +11°C° 0 mm 4 m/S 765 mmHg 58%
16:00 +9°C° 0 mm 3 m/S 765 mmHg 64%
17:00 +8°C° 0 mm 3 m/S 765 mmHg 70%
18:00 +7°C° 0 mm 3 m/S 765 mmHg 75%
19:00 +5°C° 0 mm 3 m/S 765 mmHg 78%
20:00 +5°C° 0 mm 3 m/S 766 mmHg 80%
21:00 +5°C° 0 mm 3 m/S 766 mmHg 82%
22:00 +4°C° 0 mm 3 m/S 766 mmHg 84%
23:00 +4°C° 0 mm 3 m/S 766 mmHg 86%

1 März, Montag

Zeit Temperatur Niederschläge Wind Luftdruck Luftfeuchtigkeit
00:00 +4°C° 0 mm 2 m/S 766 mmHg 87%
01:00 +4°C° 0 mm 2 m/S 766 mmHg 87%
02:00 +4°C° 0 mm 2 m/S 766 mmHg 87%
03:00 +3°C° 0 mm 2 m/S 765 mmHg 87%
04:00 +3°C° 0 mm 2 m/S 765 mmHg 86%
05:00 +2°C° 0 mm 3 m/S 765 mmHg 85%
06:00 +2°C° 0 mm 3 m/S 765 mmHg 84%
07:00 +3°C° 0 mm 3 m/S 766 mmHg 77%
08:00 +4°C° 0 mm 4 m/S 766 mmHg 69%
09:00 +6°C° 0 mm 4 m/S 766 mmHg 62%
10:00 +7°C° 0 mm 4 m/S 766 mmHg 58%
11:00 +10°C° 0 mm 4 m/S 765 mmHg 53%
12:00 +11°C° 0 mm 4 m/S 765 mmHg 48%
13:00 +11°C° 0 mm 4 m/S 765 mmHg 48%
14:00 +11°C° 0 mm 4 m/S 764 mmHg 48%
15:00 +12°C° 0 mm 4 m/S 764 mmHg 47%
16:00 +10°C° 0 mm 4 m/S 764 mmHg 52%
17:00 +8°C° 0 mm 4 m/S 764 mmHg 56%
18:00 +7°C° 0 mm 3 m/S 764 mmHg 61%
19:00 +7°C° 0 mm 3 m/S 764 mmHg 63%
20:00 +5°C° 0 mm 3 m/S 764 mmHg 64%
21:00 +5°C° 0 mm 3 m/S 764 mmHg 66%
22:00 +4°C° 0 mm 3 m/S 764 mmHg 68%
23:00 +5°C° 0 mm 2 m/S 764 mmHg 70%
Mehr zeigen

Wir brauchen deine Erlaubnis

Meteoprog und unser Service Anbieter werden persönliche Daten aufbewahren, so wie Cookies, Geräte Bezeichnung oder ähnliche Technologien von deinem Gerät und Prozess, so wie Persönliche Daten Inhalte und Werbungen, genauso wie social Media und den Verkehr zu analysieren.

  • Aufbewahrung und/oder Zugang zu deiner Geräte Informationen.

    Cookies, Geräte Bezeichnung oder andere Informationen, können aufbewahrt oder Zugang zu deinem Gerät erhalten, für den Grund, der oben angegeben wird.

  • Personalisierte Werbung und Inhalte, Messungen, Einblick in das Publikum und Produkt Entwicklung.

    Werbungen und Inhalte können personalisiert werden, basierend auf ein Profil. Mehr Daten können besser personalisierte Werbungen und Inhalte hinzufügen. Werbung und Inhalte können gezeigt und gemessen werden. Einblicke über das Publikum, welche die Werbung gesehen haben und den Inhalt, können abgeleitet werden. So wie Daten können genutzt werden, um es zu verbessern oder die Benutzer Erfahrung zu verbessern das System und die Software.

Wenn du “Ich stimme zu” klickst, erlaubst du uns, die Cookies zu benutzen die Geräte Bezeichnung, den Web oder ähnliche Technologien zu benutzen. Deine Settings, können in deinem Gerät bei deinem Browser geändert werden.

Für den bestimmten Zweck, berechtigten Interessen beruhen darauf, mehr als auf den Inhalt. Du kannst mehr darüber in unseren Privaten und Cookie Politik lesen.